CZ-6A DEB, 56630

Orbit data source: Space-Track

CZ-6A DEB, 56630 is space debris in SSO originally from a launch on Fri, 11 Nov 2022 UTC launched from the Taiyaun Space Center, China (TSC). Debris objects in space refer to the collection of defunct objects orbiting the Earth. Examples of debris include non-operational satellites, rocket bodies, and fragments generated from explosions, collisions, or faulty payload assembly.

Loading next visibility...
Identifier
56630, 2022-151AFE
Orbit
SSO
Country
Flag of CNCN / PRC
Related business
Manufacturer
SAST
Mission
Spacecraft
Bus & Motor
Unknown
Mass
Unknown
Launch date (UTC)
2022-11-11 (4 years ago)
Launch vehicle
Unknown
Launch site
Taiyaun Space Center, China (TSC)
Object type
Payload
Rocket body
Debris
Shape & HBR
Unknown shape, 0.1 m
Radar Cross Section
Small (<0.1 m²)

Expand to show TLE details & history
Last TLE update: 2 days ago

TLE from 2 days ago
0 CZ-6A DEB
1 56630U 22151AFE 26235.24250745  .00001064  00000-0  58019-3 0  9995
2 56630  98.8475 235.3491 0053044 146.9751 213.4753 14.13542036171428
Epoch: 2026-08-23T05:49Z
TLE epoch observation values (Epoch: 2026-08-23T05:49:12.643Z)
Latitude
-0°
Longitude
176.50505°
Altitude
882.214 km
Speed
7.395 km/s
True Right ascension
15h 41m 23s
True Declination
0° 00' 00"
Sunlit
Object was in daylight at epoch
Visualization orbit readout
Latitude
Unknown
Longitude
Unknown
Altitude
Unknown
Speed
Unknown
Apparent Right ascension
Unknown
Apparent Declination
Unknown
Sunlit
N/A
Visualization observer readout
Local Sidereal Time
14:13:43
Azimuth
Unknown
Elevation
Unknown
Doppler factor
Unknown
Orbital elements
Apogee altitude
882.761 km
Perigee altitude
806.138 km
Semi-major axis
7,222.587 km
Eccentricity
0.0053
Inclination
98.8475°
RAAN
235.3491°
Arg. of periapsis
146.9751°
True anomaly
213.14188°
Mean anomaly
213.4753°
Eccentric anomaly
213.3084°
Mean motion
3.53593 °/min
Orbital period
101.81 mins
BSTAR
0.00058019
Loading maneuver chart data...
Computing Atmospheric mass density...
Loading historical data...
Loading historical data...
Loading historical data...
Loading historical data...
Loading historical data...
Loading historical data...
Loading historical data...

Documentation

Showing up to 5 results
|